Weather History for NZCH - March, 2013

Change the Weather History Date:

Monday, March 18, 2013

  Actual Average Record
Temperature  
Mean Temperature 56 °F -  
Max Temperature 60 °F 66 °F 78 °F (2012)
Min Temperature 53 °F 48 °F 37 °F (2003)
Degree Days  
Heating Degree Days 8    
Growing Degree Days 6 (Base 50)    
Moisture  
Dew Point 56 °F    
Average Humidity 97    
Maximum Humidity 100    
Minimum Humidity 94    
Precipitation  
Precipitation 0.00 in - - ()
Sea Level Pressure  
Sea Level Pressure 29.51 in    
Wind  
Wind Speed 7 mph ()    
Max Wind Speed 16 mph    
Max Gust Speed -    
Visibility 5.8 miles    
Events Rain    
Averages and records for this station are not official NWS values.
T = Trace of Precipitation, MM = Missing Value Source: Averaged Metar Reports

Daily Weather History Graph

Daily Weather History Graph

Search for Another Location

Airport or City:

Trip Planner

Search our weather history database for the weather conditions in past years. The results will help you decide how hot, cold, wet, or windy it might be!

Date:

Astronomy

Mar. 18, 2013 Rise Set
Actual Time 7:29 AM NZDT 7:45 PM NZDT
Civil Twilight 7:00 AM NZDT 8:14 PM NZDT
Nautical Twilight 6:27 AM NZDT 8:47 PM NZDT
Astronomical Twilight 5:52 AM NZDT 9:22 PM NZDT
Moon 1:38 PM NZDT (3/18) 11:13 PM NZDT (3/18)
Length of Visible Light 13h 13m
Length of Day
12h 16m
Waxing Crescent, 34% of the Moon is Illuminated
Mar 18
Waxing Crescent
Mar 20
First Quarter
Mar 27
Full
Apr 3
Last Quarter
Apr 10
New

Hourly Weather History & Observations

Time (NZDT) Temp. Dew Point Humidity Pressure Visibility Wind Dir Wind Speed Gust Speed Precip Events Conditions
12:00 AM 57.2 °F 57.2 °F 100% 29.42 in 6.2 mi WSW 5.8 mph - N/A   Scattered Clouds
1:00 AM 57.2 °F 57.2 °F 100% 29.42 in 6.2 mi WSW 5.8 mph - N/A Rain Light Rain Showers
2:00 AM 57.2 °F 57.2 °F 100% 29.42 in 6.2 mi West 3.5 mph - N/A Rain Light Rain Showers
3:00 AM 57.2 °F 57.2 °F 100% 29.39 in 6.2 mi SSW 5.8 mph - N/A Rain Rain
4:00 AM 57.2 °F 57.2 °F 100% 29.39 in 6.2 mi South 6.9 mph - N/A Rain Rain
4:35 AM 57.2 °F 57.2 °F 100% 29.44 in 3.1 mi West 6.9 mph - N/A Rain Rain
5:00 AM 57.2 °F 57.2 °F 100% 29.44 in 4.3 mi West 2.3 mph - N/A Rain Rain
6:00 AM 57.2 °F 57.2 °F 100% 29.39 in 6.2 mi South 4.6 mph - N/A Rain Light Rain
7:00 AM 57.2 °F 57.2 °F 100% 29.42 in 6.2 mi SSW 3.5 mph - N/A Rain Light Rain
8:00 AM 57.2 °F 57.2 °F 100% 29.44 in 6.2 mi WSW 5.8 mph - N/A   Mostly Cloudy
9:00 AM 57.2 °F 57.2 °F 100% 29.44 in 6.2 mi SW 6.9 mph - N/A   Mostly Cloudy
10:00 AM 59.0 °F 57.2 °F 94% 29.47 in 6.2 mi SW 6.9 mph - N/A   Mostly Cloudy
11:00 AM 60.8 °F 59.0 °F 94% 29.50 in 6.2 mi SSW 9.2 mph - N/A   Mostly Cloudy
12:00 PM 59.0 °F 57.2 °F 94% 29.53 in 6.2 mi SSW 6.9 mph - N/A Rain Rain
12:05 PM 59.0 °F 57.2 °F 94% 29.53 in 6.2 mi SSW 8.1 mph - N/A Rain Rain
1:00 PM 59.0 °F 57.2 °F 94% 29.53 in 6.2 mi South 13.8 mph - N/A Rain Rain
2:00 PM 59.0 °F 57.2 °F 94% 29.53 in 6.2 mi South 15.0 mph - N/A Rain Light Rain Showers
3:00 PM 57.2 °F 57.2 °F 100% 29.56 in 6.2 mi South 16.1 mph - N/A Rain Light Rain Showers
4:00 PM 57.2 °F 55.4 °F 94% 29.56 in 6.2 mi South 15.0 mph - N/A Rain Light Rain Showers
5:00 PM 57.2 °F 55.4 °F 94% 29.56 in 6.2 mi South 11.5 mph - N/A Rain Light Rain Showers
6:00 PM 55.4 °F 55.4 °F 100% 29.59 in 6.2 mi South 13.8 mph - N/A Rain Light Rain Showers
7:00 PM 55.4 °F 53.6 °F 94% 29.62 in 6.2 mi South 11.5 mph - N/A   Mostly Cloudy
8:00 PM 53.6 °F 51.8 °F 94% 29.62 in 3.7 mi South 11.5 mph - N/A   Light Drizzle
9:00 PM 53.6 °F 51.8 °F 94% 29.65 in 3.7 mi SSW 11.5 mph - N/A   Light Drizzle
10:00 PM 53.6 °F 53.6 °F 100% 29.68 in 6.2 mi South 10.4 mph - N/A Rain Rain
11:00 PM 53.6 °F 51.8 °F 94% 29.68 in 6.2 mi South 11.5 mph - N/A Rain Rain